DLH01A LPPT-EDDM

Flight info

Callsign DLH01A
Flight time 2h 32m
Altitude 32000
Route IXIDA DCT RIVRO DCT TOSDI DCT ZMR DCT NEA DCT DGO DCT LPA DCT GOSVI DCT TOPTU DCT TOU/N0431F340 DCT GAI DCT MEN DCT NINUN DCT LATAM DCT ETREK DCT LTP DCT SOPLO DCT OMASI DCT KINNI DCT LAMUR DCT KORED/N0432F330 DCT NUNRI T103 BETOS
Aircraft A21N/M-SDE2E3FGHIRWXY/LB1

Departure

Time 2026-05-07 14:03
Airport Lisbon Humberto Delgado Airport (LPPT)

Arrival

Time 2026-05-07 16:35
Airport Munich Airport (EDDM)
Time Latitude Longitude Altitude Speed Heading
2026-05-07 12:51 38.77207 -9.13140 364 ft 0 kts 78°
2026-05-07 13:50 38.77205 -9.13155 363 ft 4 kts 78°
2026-05-07 13:50 38.77200 -9.13182 362 ft 3 kts 78°
2026-05-07 13:50 38.77192 -9.13211 363 ft 4 kts 41°
2026-05-07 13:50 38.77172 -9.13218 362 ft 3 kts 348°
2026-05-07 13:51 38.77151 -9.13213 362 ft 2 kts 348°
2026-05-07 13:57 38.77153 -9.13214 356 ft 2 kts 348°
2026-05-07 13:57 38.77183 -9.13221 356 ft 7 kts 348°
2026-05-07 13:57 38.77247 -9.13238 358 ft 12 kts 348°
2026-05-07 13:57 38.77312 -9.13258 361 ft 6 kts 327°
2026-05-07 13:58 38.77327 -9.13311 357 ft 7 kts 262°
2026-05-07 13:58 38.77316 -9.13380 355 ft 9 kts 259°
2026-05-07 13:58 38.77303 -9.13468 361 ft 11 kts 258°
2026-05-07 13:58 38.77285 -9.13573 359 ft 13 kts 258°
2026-05-07 13:59 38.77266 -9.13691 357 ft 14 kts 258°
2026-05-07 13:59 38.77247 -9.13802 359 ft 11 kts 257°
2026-05-07 13:59 38.77189 -9.13871 357 ft 13 kts 202°
2026-05-07 13:59 38.77097 -9.13920 360 ft 16 kts 202°
2026-05-07 14:00 38.76982 -9.13981 362 ft 20 kts 202°
2026-05-07 14:00 38.76851 -9.14050 360 ft 21 kts 202°
2026-05-07 14:00 38.76712 -9.14124 356 ft 22 kts 202°
2026-05-07 14:00 38.76606 -9.14184 356 ft 10 kts 232°
2026-05-07 14:01 38.76610 -9.14274 357 ft 11 kts 294°
2026-05-07 14:01 38.76632 -9.14338 361 ft 12 kts 294°
2026-05-07 14:01 38.76654 -9.14373 360 ft 4 kts 345°
2026-05-07 14:01 38.76698 -9.14359 361 ft 6 kts 19°
2026-05-07 14:02 38.76747 -9.14334 359 ft 10 kts 22°
2026-05-07 14:02 38.77013 -9.14193 359 ft 79 kts 22°
2026-05-07 14:02 38.77741 -9.13803 363 ft 146 kts 23°
2026-05-07 14:02 38.78826 -9.13226 476 ft 178 kts 21°
2026-05-07 14:03 38.79537 -9.12818 1125 ft 164 kts 21°
2026-05-07 14:03 38.80549 -9.12065 1774 ft 173 kts 29°
2026-05-07 14:03 38.81607 -9.11237 2273 ft 184 kts 26°
2026-05-07 14:03 38.82771 -9.10438 2811 ft 196 kts 24°
2026-05-07 14:04 38.84008 -9.09551 3328 ft 215 kts 28°
2026-05-07 14:04 38.85845 -9.08218 3879 ft 243 kts 28°
2026-05-07 14:04 38.87372 -9.07098 4409 ft 261 kts 30°
2026-05-07 14:04 38.88431 -9.06304 4803 ft 271 kts 30°
2026-05-07 14:05 38.90038 -9.05017 5684 ft 273 kts 40°
2026-05-07 14:05 38.91453 -9.03362 6527 ft 278 kts 45°
2026-05-07 14:05 38.92872 -9.01667 7307 ft 284 kts 44°
2026-05-07 14:05 38.94351 -8.99958 8134 ft 288 kts 44°
2026-05-07 14:06 38.96333 -8.97642 9216 ft 293 kts 44°
2026-05-07 14:06 38.97354 -8.96440 9767 ft 297 kts 43°
2026-05-07 14:06 38.98894 -8.94641 10246 ft 312 kts 43°
2026-05-07 14:06 39.00568 -8.92702 10416 ft 336 kts 43°
2026-05-07 14:07 39.02357 -8.90626 10667 ft 353 kts 43°
2026-05-07 14:07 39.04131 -8.88551 11557 ft 350 kts 43°
2026-05-07 14:07 39.05904 -8.86411 12420 ft 350 kts 45°
2026-05-07 14:07 39.07620 -8.84168 13195 ft 353 kts 46°
2026-05-07 14:08 39.09341 -8.81885 13869 ft 359 kts 46°
2026-05-07 14:08 39.11088 -8.79552 14506 ft 363 kts 46°
2026-05-07 14:08 39.12835 -8.77214 15244 ft 362 kts 45°
2026-05-07 14:08 39.14573 -8.74899 15902 ft 367 kts 45°
2026-05-07 14:09 39.16368 -8.72526 16460 ft 373 kts 44°
2026-05-07 14:09 39.18190 -8.70118 17123 ft 376 kts 44°
2026-05-07 14:09 39.20022 -8.67687 17763 ft 380 kts 44°
2026-05-07 14:09 39.21872 -8.65228 18366 ft 384 kts 44°
2026-05-07 14:10 39.23736 -8.62750 18912 ft 387 kts 44°
2026-05-07 14:10 39.25619 -8.60239 19441 ft 391 kts 44°
2026-05-07 14:10 39.28136 -8.56880 20124 ft 396 kts 44°
2026-05-07 14:10 39.29406 -8.55183 20450 ft 399 kts 44°
2026-05-07 14:11 39.31339 -8.52596 20966 ft 402 kts 43°
2026-05-07 14:11 39.33294 -8.49984 21476 ft 406 kts 43°
2026-05-07 14:11 39.35261 -8.47353 21983 ft 410 kts 43°
2026-05-07 14:11 39.37248 -8.44690 22478 ft 414 kts 43°
2026-05-07 14:12 39.39255 -8.41994 22965 ft 417 kts 43°
2026-05-07 14:12 39.41269 -8.39273 23443 ft 421 kts 43°
2026-05-07 14:12 39.43306 -8.36519 23856 ft 424 kts 43°
2026-05-07 14:12 39.45330 -8.33792 24258 ft 427 kts 42°
2026-05-07 14:13 39.47420 -8.30977 24668 ft 430 kts 42°
2026-05-07 14:13 39.49474 -8.28209 25065 ft 433 kts 42°
2026-05-07 14:13 39.51562 -8.25391 25439 ft 436 kts 42°
2026-05-07 14:13 39.53668 -8.22546 25832 ft 438 kts 42°
2026-05-07 14:14 39.55782 -8.19688 26211 ft 441 kts 42°
2026-05-07 14:14 39.57911 -8.16808 26585 ft 444 kts 41°
2026-05-07 14:14 39.60057 -8.13908 26952 ft 446 kts 41°
2026-05-07 14:14 39.62219 -8.11003 27320 ft 449 kts 41°
2026-05-07 14:15 39.64388 -8.08075 27678 ft 452 kts 41°
2026-05-07 14:15 39.66569 -8.05118 28054 ft 454 kts 41°
2026-05-07 14:15 39.68717 -8.02183 28381 ft 457 kts 41°
2026-05-07 14:15 39.70916 -7.99180 28716 ft 459 kts 41°
2026-05-07 14:16 39.73119 -7.96171 29034 ft 462 kts 41°
2026-05-07 14:16 39.75341 -7.93133 29357 ft 465 kts 41°
2026-05-07 14:16 39.77583 -7.90075 29693 ft 467 kts 41°
2026-05-07 14:16 39.79822 -7.87023 30048 ft 467 kts 41°
2026-05-07 14:17 39.82061 -7.83967 30360 ft 467 kts 40°
2026-05-07 14:17 39.84305 -7.80903 30704 ft 467 kts 40°
2026-05-07 14:17 39.86509 -7.77884 31033 ft 467 kts 40°
2026-05-07 14:17 39.88740 -7.74823 31351 ft 466 kts 40°
2026-05-07 14:18 39.90966 -7.71765 31662 ft 465 kts 40°
2026-05-07 14:18 39.93197 -7.68701 31856 ft 466 kts 40°
2026-05-07 14:18 39.95423 -7.65643 31878 ft 465 kts 40°
2026-05-07 14:19 39.99867 -7.59542 31854 ft 464 kts 40°
2026-05-07 14:19 40.04306 -7.53426 32224 ft 464 kts 39°
2026-05-07 14:19 40.06494 -7.50406 32526 ft 465 kts 40°
2026-05-07 14:20 40.08710 -7.47339 32825 ft 464 kts 40°
2026-05-07 14:20 40.10927 -7.44264 33053 ft 465 kts 39°
2026-05-07 14:20 40.13149 -7.41178 33291 ft 467 kts 39°
2026-05-07 14:20 40.15375 -7.38082 33509 ft 467 kts 39°
2026-05-07 14:21 40.17600 -7.34983 33752 ft 468 kts 39°
2026-05-07 14:21 40.19830 -7.31871 33879 ft 468 kts 39°
2026-05-07 14:21 40.22029 -7.28804 33879 ft 468 kts 39°
2026-05-07 14:22 40.26475 -7.22600 33846 ft 467 kts 39°
2026-05-07 14:22 40.30917 -7.16389 33857 ft 466 kts 39°
2026-05-07 14:23 40.35351 -7.10208 33851 ft 465 kts 39°
2026-05-07 14:23 40.39782 -7.04037 33848 ft 464 kts 39°
2026-05-07 14:24 40.44163 -6.97885 33847 ft 464 kts 39°
2026-05-07 14:24 40.48559 -6.91688 33851 ft 463 kts 39°
2026-05-07 14:25 40.52947 -6.85498 33853 ft 463 kts 39°
2026-05-07 14:25 40.57268 -6.79295 33853 ft 467 kts 44°
2026-05-07 14:25 40.59017 -6.75640 33854 ft 479 kts 56°
2026-05-07 14:26 40.60480 -6.71679 33859 ft 481 kts 58°
2026-05-07 14:26 40.63375 -6.63753 33857 ft 480 kts 57°
2026-05-07 14:27 40.66325 -6.55886 33863 ft 479 kts 57°
2026-05-07 14:27 40.69266 -6.48028 33857 ft 477 kts 57°
2026-05-07 14:28 40.72169 -6.40247 33865 ft 476 kts 57°
2026-05-07 14:28 40.75085 -6.32419 33865 ft 475 kts 57°
2026-05-07 14:29 40.77991 -6.24580 33863 ft 475 kts 58°
2026-05-07 14:29 40.80888 -6.16752 33860 ft 474 kts 58°
2026-05-07 14:30 40.83751 -6.08989 33869 ft 474 kts 58°
2026-05-07 14:30 40.86633 -6.01164 33872 ft 473 kts 58°
2026-05-07 14:31 40.89504 -5.93339 33872 ft 473 kts 59°
2026-05-07 14:31 40.92367 -5.85523 33876 ft 472 kts 59°
2026-05-07 14:32 40.95225 -5.77705 33876 ft 471 kts 59°
2026-05-07 14:32 40.98046 -5.69952 33883 ft 470 kts 59°
2026-05-07 14:33 41.00878 -5.62152 33878 ft 470 kts 60°
2026-05-07 14:33 41.03697 -5.54358 33873 ft 469 kts 60°
2026-05-07 14:34 41.06506 -5.46564 33875 ft 468 kts 60°
2026-05-07 14:34 41.09294 -5.38841 33879 ft 468 kts 60°
2026-05-07 14:35 41.12094 -5.31053 33882 ft 468 kts 60°
2026-05-07 14:35 41.14883 -5.23264 33887 ft 467 kts 60°
2026-05-07 14:36 41.17669 -5.15473 33883 ft 467 kts 61°
2026-05-07 14:36 41.20427 -5.07734 33894 ft 467 kts 61°
2026-05-07 14:37 41.23197 -4.99925 33888 ft 467 kts 61°
2026-05-07 14:37 41.27351 -4.88209 33888 ft 467 kts 62°
2026-05-07 14:38 41.30098 -4.80404 33888 ft 466 kts 62°
2026-05-07 14:38 41.32827 -4.72643 33891 ft 466 kts 62°
2026-05-07 14:39 41.35575 -4.64827 33893 ft 466 kts 62°
2026-05-07 14:39 41.38309 -4.57026 33895 ft 465 kts 62°
2026-05-07 14:40 41.41020 -4.49261 33893 ft 464 kts 63°
2026-05-07 14:40 41.43733 -4.41465 33896 ft 464 kts 63°
2026-05-07 14:41 41.46436 -4.33665 33896 ft 463 kts 63°
2026-05-07 14:41 41.49123 -4.25888 33899 ft 462 kts 64°
2026-05-07 14:42 41.51810 -4.18109 33887 ft 461 kts 64°
2026-05-07 14:42 41.54466 -4.10388 33896 ft 460 kts 64°
2026-05-07 14:43 41.57137 -4.02630 33901 ft 460 kts 64°
2026-05-07 14:43 41.59796 -3.94858 33893 ft 460 kts 65°
2026-05-07 14:44 41.62445 -3.87093 33901 ft 459 kts 65°
2026-05-07 14:44 41.65070 -3.79381 33885 ft 459 kts 65°
2026-05-07 14:45 41.67708 -3.71606 33887 ft 458 kts 65°
2026-05-07 14:45 41.70340 -3.63845 33894 ft 459 kts 65°
2026-05-07 14:46 41.72965 -3.56063 33883 ft 459 kts 66°
2026-05-07 14:46 41.75571 -3.48332 33888 ft 458 kts 66°
2026-05-07 14:47 41.78185 -3.40541 33892 ft 458 kts 66°
2026-05-07 14:47 41.80789 -3.32752 33884 ft 458 kts 66°
2026-05-07 14:48 41.83392 -3.24957 33898 ft 458 kts 66°
2026-05-07 14:48 41.85962 -3.17190 33906 ft 458 kts 67°
2026-05-07 14:49 41.88547 -3.09382 33908 ft 458 kts 67°
2026-05-07 14:49 41.91136 -3.01570 33912 ft 458 kts 67°
2026-05-07 14:50 41.93719 -2.93754 33904 ft 458 kts 67°
2026-05-07 14:50 41.96281 -2.85988 33901 ft 458 kts 68°
2026-05-07 14:51 41.98853 -2.78163 33907 ft 458 kts 68°
2026-05-07 14:51 42.01409 -2.70337 33921 ft 457 kts 68°
2026-05-07 14:52 42.03966 -2.62507 33918 ft 457 kts 68°
2026-05-07 14:52 42.06512 -2.54676 33910 ft 457 kts 68°
2026-05-07 14:53 42.09040 -2.46893 33919 ft 457 kts 68°
2026-05-07 14:53 42.11580 -2.39050 33915 ft 457 kts 69°
2026-05-07 14:54 42.14110 -2.31197 33913 ft 457 kts 69°
2026-05-07 14:54 42.16635 -2.23331 33913 ft 457 kts 69°
2026-05-07 14:55 42.19138 -2.15522 33901 ft 457 kts 69°
2026-05-07 14:55 42.21659 -2.07634 33902 ft 458 kts 69°
2026-05-07 14:56 42.24174 -1.99736 33903 ft 458 kts 69°
2026-05-07 14:56 42.26685 -1.91838 33900 ft 458 kts 69°
2026-05-07 14:57 42.29191 -1.83916 33892 ft 459 kts 69°
2026-05-07 14:57 42.31682 -1.76039 33899 ft 459 kts 70°
2026-05-07 14:58 42.34185 -1.68094 33902 ft 460 kts 70°
2026-05-07 14:58 42.36690 -1.60122 33905 ft 461 kts 70°
2026-05-07 14:59 42.39190 -1.52140 33913 ft 461 kts 70°
2026-05-07 14:59 42.41682 -1.44147 33917 ft 462 kts 70°
2026-05-07 15:00 42.44165 -1.36172 33915 ft 463 kts 70°
2026-05-07 15:00 42.46658 -1.28131 33922 ft 464 kts 70°
2026-05-07 15:01 42.49158 -1.20062 33919 ft 465 kts 70°
2026-05-07 15:01 42.51651 -1.11971 33925 ft 465 kts 70°
2026-05-07 15:02 42.54122 -1.03929 33927 ft 466 kts 70°
2026-05-07 15:02 42.56611 -0.95804 33924 ft 466 kts 70°
2026-05-07 15:03 42.59090 -0.87675 33925 ft 467 kts 70°
2026-05-07 15:03 42.61572 -0.79534 33924 ft 467 kts 70°
2026-05-07 15:04 42.64050 -0.71381 33932 ft 466 kts 70°
2026-05-07 15:04 42.66501 -0.63290 33929 ft 467 kts 70°
2026-05-07 15:05 42.68966 -0.55112 33933 ft 467 kts 70°
2026-05-07 15:05 42.71423 -0.46941 33945 ft 468 kts 71°
2026-05-07 15:06 42.73863 -0.38803 33948 ft 468 kts 71°
2026-05-07 15:06 42.76314 -0.30594 33954 ft 468 kts 70°
2026-05-07 15:07 42.78778 -0.22385 33944 ft 469 kts 69°
2026-05-07 15:07 42.82247 -0.14829 33955 ft 474 kts 52°
2026-05-07 15:08 42.86466 -0.07988 33959 ft 474 kts 51°
2026-05-07 15:08 42.90675 -0.01057 33958 ft 474 kts 52°
2026-05-07 15:09 42.94846 0.05910 33951 ft 474 kts 52°
2026-05-07 15:09 42.99017 0.12901 33950 ft 475 kts 52°
2026-05-07 15:10 43.03154 0.19852 33947 ft 475 kts 52°
2026-05-07 15:10 43.07321 0.26857 33947 ft 475 kts 52°
2026-05-07 15:11 43.11491 0.33879 33947 ft 475 kts 52°
2026-05-07 15:11 43.15648 0.40904 33949 ft 475 kts 52°
2026-05-07 15:12 43.19804 0.47946 33956 ft 475 kts 52°
2026-05-07 15:12 43.23926 0.54945 33958 ft 475 kts 52°
2026-05-07 15:13 43.28072 0.62008 33956 ft 475 kts 52°
2026-05-07 15:13 43.32213 0.69070 33952 ft 475 kts 52°
2026-05-07 15:14 43.36349 0.76142 33963 ft 475 kts 52°
2026-05-07 15:14 43.40483 0.83233 33958 ft 475 kts 52°
2026-05-07 15:15 43.44583 0.90271 33962 ft 474 kts 52°
2026-05-07 15:15 43.48701 0.97364 33959 ft 474 kts 52°
2026-05-07 15:16 43.52816 1.04470 33962 ft 474 kts 52°
2026-05-07 15:16 43.56919 1.11569 33966 ft 474 kts 52°
2026-05-07 15:17 43.61015 1.18675 33962 ft 473 kts 52°
2026-05-07 15:17 43.65069 1.25730 33964 ft 472 kts 52°
2026-05-07 15:18 43.69106 1.32892 33963 ft 472 kts 54°
2026-05-07 15:18 43.73003 1.40188 33965 ft 471 kts 54°
2026-05-07 15:19 43.76895 1.47483 33966 ft 471 kts 54°
2026-05-07 15:19 43.80776 1.54777 33970 ft 471 kts 54°
2026-05-07 15:20 43.84633 1.62037 33968 ft 470 kts 54°
2026-05-07 15:20 43.88500 1.69341 33967 ft 470 kts 54°
2026-05-07 15:21 43.92355 1.76678 33973 ft 470 kts 54°
2026-05-07 15:21 43.96160 1.84032 33968 ft 469 kts 56°
2026-05-07 15:22 43.99860 1.91441 33974 ft 469 kts 56°
2026-05-07 15:22 44.03569 1.98883 33971 ft 469 kts 56°
2026-05-07 15:23 44.07272 2.06344 33973 ft 469 kts 56°
2026-05-07 15:23 44.10973 2.13810 33973 ft 468 kts 56°
2026-05-07 15:24 44.14641 2.21220 33974 ft 468 kts 56°
2026-05-07 15:24 44.18322 2.28693 33967 ft 468 kts 56°
2026-05-07 15:25 44.22001 2.36166 33968 ft 468 kts 56°
2026-05-07 15:25 44.25690 2.43633 33967 ft 467 kts 56°
2026-05-07 15:26 44.29356 2.51121 33961 ft 467 kts 56°
2026-05-07 15:26 44.32995 2.58553 33963 ft 467 kts 56°
2026-05-07 15:27 44.36648 2.66051 33966 ft 466 kts 56°
2026-05-07 15:27 44.40288 2.73543 33963 ft 466 kts 56°
2026-05-07 15:28 44.43922 2.81062 33964 ft 466 kts 56°
2026-05-07 15:28 44.47526 2.88534 33967 ft 466 kts 56°
2026-05-07 15:29 44.51146 2.96041 33962 ft 465 kts 56°
2026-05-07 15:29 44.54760 3.03568 33968 ft 465 kts 56°
2026-05-07 15:30 44.58374 3.11107 33968 ft 466 kts 56°
2026-05-07 15:30 44.61831 3.18715 33963 ft 466 kts 61°
2026-05-07 15:31 44.65011 3.26641 33960 ft 466 kts 61°
2026-05-07 15:31 44.68190 3.34592 33960 ft 466 kts 61°
2026-05-07 15:32 44.71333 3.42563 33961 ft 467 kts 61°
2026-05-07 15:32 44.74476 3.50486 33964 ft 467 kts 61°
2026-05-07 15:33 44.77649 3.58458 33964 ft 467 kts 61°
2026-05-07 15:33 44.80846 3.66416 33971 ft 467 kts 61°
2026-05-07 15:34 44.84010 3.74399 33975 ft 467 kts 61°
2026-05-07 15:34 44.87150 3.82349 33975 ft 468 kts 61°
2026-05-07 15:35 44.90306 3.90373 33980 ft 468 kts 61°
2026-05-07 15:35 44.93448 3.98404 33981 ft 468 kts 61°
2026-05-07 15:36 44.96599 4.06465 34215 ft 469 kts 61°
2026-05-07 15:36 44.98178 4.10510 34427 ft 470 kts 61°
2026-05-07 15:36 44.99752 4.14557 34638 ft 470 kts 61°
2026-05-07 15:37 45.01302 4.18543 34832 ft 471 kts 62°
2026-05-07 15:37 45.02878 4.22606 35039 ft 471 kts 61°
2026-05-07 15:37 45.04446 4.26682 35237 ft 471 kts 62°
2026-05-07 15:37 45.06000 4.30752 35414 ft 472 kts 62°
2026-05-07 15:38 45.07566 4.34850 35592 ft 473 kts 62°
2026-05-07 15:38 45.09137 4.38947 35755 ft 474 kts 62°
2026-05-07 15:38 45.10711 4.43045 35915 ft 475 kts 62°
2026-05-07 15:38 45.12292 4.47160 36015 ft 477 kts 62°
2026-05-07 15:39 45.15437 4.55346 36001 ft 477 kts 62°
2026-05-07 15:39 45.18600 4.63619 35981 ft 477 kts 62°
2026-05-07 15:40 45.21792 4.71866 35976 ft 477 kts 61°
2026-05-07 15:40 45.24951 4.80142 35993 ft 477 kts 62°
2026-05-07 15:41 45.28077 4.88371 35979 ft 477 kts 62°
2026-05-07 15:41 45.31215 4.96671 35975 ft 477 kts 62°
2026-05-07 15:42 45.34349 5.04980 35969 ft 477 kts 62°
2026-05-07 15:42 45.37479 5.13317 35967 ft 478 kts 62°
2026-05-07 15:43 45.40603 5.21649 35965 ft 478 kts 62°
2026-05-07 15:43 45.43705 5.29956 35967 ft 478 kts 62°
2026-05-07 15:44 45.46822 5.38317 35966 ft 478 kts 62°
2026-05-07 15:44 45.50561 5.46066 35966 ft 475 kts 43°
2026-05-07 15:45 45.55271 5.52707 35979 ft 479 kts 50°
2026-05-07 15:45 45.59264 5.60284 35971 ft 481 kts 52°
2026-05-07 15:46 45.65258 5.71778 35967 ft 481 kts 52°
2026-05-07 15:47 45.69277 5.79430 35966 ft 481 kts 52°
2026-05-07 15:47 45.73298 5.87076 35936 ft 481 kts 51°
2026-05-07 15:48 45.77287 5.94691 35961 ft 481 kts 51°
2026-05-07 15:48 45.81280 6.02342 35963 ft 478 kts 51°
2026-05-07 15:49 45.85258 6.09986 35966 ft 478 kts 51°
2026-05-07 15:49 45.89230 6.17646 35955 ft 478 kts 51°
2026-05-07 15:50 45.93170 6.25256 35961 ft 478 kts 51°
2026-05-07 15:50 45.97137 6.32936 35966 ft 478 kts 51°
2026-05-07 15:51 46.01092 6.40615 35978 ft 478 kts 51°
2026-05-07 15:51 46.05049 6.48321 35981 ft 478 kts 51°
2026-05-07 15:52 46.08971 6.55981 35993 ft 478 kts 51°
2026-05-07 15:52 46.12913 6.63706 35988 ft 478 kts 51°
2026-05-07 15:53 46.16850 6.71430 35988 ft 478 kts 51°
2026-05-07 15:53 46.20773 6.79167 35998 ft 477 kts 52°
2026-05-07 15:54 46.24674 6.86859 35985 ft 477 kts 51°
2026-05-07 15:54 46.28588 6.94598 35978 ft 476 kts 51°
2026-05-07 15:55 46.32464 7.02355 35972 ft 477 kts 52°
2026-05-07 15:55 46.36346 7.10141 35962 ft 476 kts 51°
2026-05-07 15:56 46.40254 7.17872 35961 ft 476 kts 51°
2026-05-07 15:56 46.44127 7.25583 35968 ft 476 kts 52°
2026-05-07 15:57 46.48001 7.33358 35976 ft 476 kts 52°
2026-05-07 15:57 46.51870 7.41161 35989 ft 476 kts 52°
2026-05-07 15:58 46.55737 7.48956 36005 ft 475 kts 52°
2026-05-07 15:58 46.59588 7.56758 36006 ft 475 kts 52°
2026-05-07 15:59 46.63432 7.64561 36007 ft 475 kts 52°
2026-05-07 15:59 46.67272 7.72372 36020 ft 474 kts 52°
2026-05-07 16:00 46.71077 7.80148 36008 ft 475 kts 52°
2026-05-07 16:00 46.74876 7.88001 36011 ft 474 kts 53°
2026-05-07 16:01 46.78700 7.95831 36010 ft 474 kts 52°
2026-05-07 16:01 46.82539 8.03685 35997 ft 474 kts 52°
2026-05-07 16:02 46.86324 8.11485 35987 ft 474 kts 52°
2026-05-07 16:02 46.90116 8.19347 36015 ft 473 kts 52°
2026-05-07 16:03 46.93910 8.27216 36036 ft 473 kts 52°
2026-05-07 16:03 46.97691 8.35089 36021 ft 473 kts 52°
2026-05-07 16:04 47.01446 8.42933 36016 ft 473 kts 53°
2026-05-07 16:04 47.05222 8.50833 36008 ft 473 kts 53°
2026-05-07 16:05 47.08990 8.58750 36025 ft 473 kts 53°
2026-05-07 16:05 47.12745 8.66658 36022 ft 473 kts 53°
2026-05-07 16:06 47.16473 8.74542 36023 ft 473 kts 53°
2026-05-07 16:06 47.20223 8.82484 36024 ft 473 kts 53°
2026-05-07 16:07 47.23971 8.90434 36026 ft 473 kts 53°
2026-05-07 16:07 47.27710 8.98403 36022 ft 473 kts 53°
2026-05-07 16:08 47.31446 9.06383 36022 ft 473 kts 53°
2026-05-07 16:08 47.35146 9.14306 36025 ft 473 kts 54°
2026-05-07 16:09 47.38863 9.22306 36027 ft 472 kts 54°
2026-05-07 16:09 47.42573 9.30296 36023 ft 472 kts 54°
2026-05-07 16:10 47.46274 9.38298 36023 ft 472 kts 54°
2026-05-07 16:10 47.49950 9.46267 36026 ft 472 kts 54°
2026-05-07 16:11 47.53636 9.54288 36024 ft 472 kts 54°
2026-05-07 16:11 47.57112 9.62519 36018 ft 473 kts 65°
2026-05-07 16:11 47.58142 9.67118 36020 ft 473 kts 79°
2026-05-07 16:12 47.58467 9.71955 36026 ft 471 kts 92°
2026-05-07 16:12 47.58057 9.81561 36027 ft 471 kts 96°
2026-05-07 16:13 47.57595 9.91250 36023 ft 471 kts 95°
2026-05-07 16:13 47.57186 10.00943 36020 ft 471 kts 95°
2026-05-07 16:14 47.56780 10.10565 36024 ft 471 kts 95°
2026-05-07 16:14 47.56357 10.20305 36021 ft 471 kts 95°
2026-05-07 16:15 47.55944 10.29933 36021 ft 472 kts 95°
2026-05-07 16:15 47.55519 10.39617 36014 ft 471 kts 95°
2026-05-07 16:15 47.55298 10.44452 35898 ft 470 kts 96°
2026-05-07 16:16 47.55103 10.49279 35346 ft 467 kts 93°
2026-05-07 16:16 47.55316 10.54067 34721 ft 466 kts 81°
2026-05-07 16:16 47.56158 10.58619 34136 ft 464 kts 68°
2026-05-07 16:16 47.57620 10.62854 33487 ft 461 kts 59°
2026-05-07 16:17 47.59271 10.66899 32904 ft 459 kts 58°
2026-05-07 16:17 47.60934 10.70914 32330 ft 456 kts 58°
2026-05-07 16:17 47.62580 10.74918 31747 ft 453 kts 58°
2026-05-07 16:17 47.64194 10.78898 31197 ft 450 kts 59°
2026-05-07 16:18 47.65797 10.82890 30648 ft 448 kts 59°
2026-05-07 16:18 47.67375 10.86823 30232 ft 440 kts 57°
2026-05-07 16:18 47.69257 10.90316 29930 ft 427 kts 42°
2026-05-07 16:18 47.71487 10.93132 29522 ft 418 kts 37°
2026-05-07 16:19 47.73759 10.95781 28934 ft 413 kts 36°
2026-05-07 16:19 47.75858 10.98591 28312 ft 411 kts 50°
2026-05-07 16:19 47.77487 11.02042 27734 ft 407 kts 57°
2026-05-07 16:19 47.78984 11.05608 27154 ft 404 kts 58°
2026-05-07 16:20 47.80461 11.09136 26606 ft 400 kts 57°
2026-05-07 16:20 47.81937 11.12618 26058 ft 397 kts 57°
2026-05-07 16:20 47.83417 11.16076 25535 ft 393 kts 57°
2026-05-07 16:20 47.84883 11.19487 25018 ft 390 kts 57°
2026-05-07 16:21 47.86339 11.22870 24510 ft 387 kts 57°
2026-05-07 16:21 47.87771 11.26201 24020 ft 384 kts 57°
2026-05-07 16:21 47.89201 11.29533 23533 ft 381 kts 57°
2026-05-07 16:21 47.90622 11.32851 22947 ft 378 kts 57°
2026-05-07 16:22 47.92031 11.36146 22396 ft 376 kts 57°
2026-05-07 16:22 47.93428 11.39413 21852 ft 373 kts 56°
2026-05-07 16:22 47.94816 11.42658 21322 ft 370 kts 57°
2026-05-07 16:22 47.96190 11.45880 20799 ft 367 kts 56°
2026-05-07 16:23 47.97554 11.49084 20273 ft 365 kts 57°
2026-05-07 16:23 47.98912 11.52281 19761 ft 362 kts 57°
2026-05-07 16:23 48.00256 11.55438 19260 ft 360 kts 56°
2026-05-07 16:23 48.01595 11.58588 18758 ft 358 kts 56°
2026-05-07 16:24 48.02919 11.61715 18261 ft 355 kts 57°
2026-05-07 16:24 48.04218 11.64787 17703 ft 353 kts 57°
2026-05-07 16:24 48.05545 11.67921 17161 ft 351 kts 57°
2026-05-07 16:24 48.06829 11.70957 16686 ft 351 kts 57°
2026-05-07 16:25 48.08129 11.74033 16240 ft 349 kts 57°
2026-05-07 16:25 48.09419 11.77091 15699 ft 346 kts 57°
2026-05-07 16:25 48.10696 11.80123 15077 ft 342 kts 57°
2026-05-07 16:25 48.11956 11.83119 14462 ft 339 kts 57°
2026-05-07 16:26 48.13206 11.86096 13850 ft 336 kts 57°
2026-05-07 16:26 48.14448 11.89057 13174 ft 333 kts 57°
2026-05-07 16:26 48.15675 11.91981 12518 ft 330 kts 57°
2026-05-07 16:26 48.16478 11.93902 12090 ft 328 kts 58°
2026-05-07 16:27 48.18087 11.97744 11259 ft 323 kts 58°
2026-05-07 16:27 48.19273 12.00581 10664 ft 320 kts 58°
2026-05-07 16:27 48.20430 12.03353 10191 ft 313 kts 58°
2026-05-07 16:27 48.21569 12.06087 9718 ft 306 kts 58°
2026-05-07 16:28 48.22326 12.07901 9346 ft 303 kts 58°
2026-05-07 16:28 48.23794 12.11430 8600 ft 298 kts 58°
2026-05-07 16:28 48.24881 12.14042 8042 ft 295 kts 58°
2026-05-07 16:28 48.25993 12.16598 7495 ft 291 kts 49°
2026-05-07 16:29 48.26990 12.17992 7109 ft 289 kts 32°
2026-05-07 16:29 48.28787 12.19126 6612 ft 284 kts
2026-05-07 16:29 48.30732 12.19245 6256 ft 277 kts 356°
2026-05-07 16:29 48.32646 12.19094 5851 ft 274 kts 354°
2026-05-07 16:30 48.34524 12.18792 5420 ft 269 kts 343°
2026-05-07 16:30 48.36108 12.17437 5060 ft 261 kts 311°
2026-05-07 16:30 48.36937 12.15095 4973 ft 248 kts 284°
2026-05-07 16:30 48.37105 12.12618 4959 ft 230 kts 269°
2026-05-07 16:31 48.36970 12.10279 4974 ft 224 kts 263°
2026-05-07 16:31 48.36745 12.07953 4975 ft 221 kts 262°
2026-05-07 16:31 48.36526 12.05751 4883 ft 206 kts 262°
2026-05-07 16:31 48.36335 12.03647 4692 ft 203 kts 263°
2026-05-07 16:32 48.36126 12.01541 4441 ft 204 kts 262°
2026-05-07 16:32 48.35948 11.99460 4166 ft 203 kts 264°
2026-05-07 16:32 48.35785 11.97403 3935 ft 194 kts 265°
2026-05-07 16:32 48.35631 11.95423 3663 ft 188 kts 265°
2026-05-07 16:33 48.35478 11.93502 3422 ft 179 kts 265°
2026-05-07 16:33 48.35339 11.91696 3136 ft 170 kts 265°
2026-05-07 16:33 48.35222 11.90007 3001 ft 153 kts 266°
2026-05-07 16:33 48.35112 11.88519 2791 ft 136 kts 265°
2026-05-07 16:34 48.34991 11.87149 2541 ft 130 kts 264°
2026-05-07 16:34 48.34884 11.85778 2289 ft 134 kts 266°
2026-05-07 16:34 48.34783 11.84403 2065 ft 135 kts 266°
2026-05-07 16:34 48.34670 11.82987 1862 ft 139 kts 266°
2026-05-07 16:35 48.34555 11.81558 1668 ft 137 kts 268°
2026-05-07 16:35 48.34453 11.80136 1506 ft 136 kts 268°
2026-05-07 16:35 48.34357 11.78862 1483 ft 96 kts 264°
2026-05-07 16:35 48.34310 11.78226 1491 ft 32 kts 263°
2026-05-07 16:36 48.34340 11.77907 1484 ft 32 kts 292°
2026-05-07 16:36 48.34416 11.77646 1483 ft 26 kts 294°
2026-05-07 16:36 48.34455 11.77510 1481 ft 9 kts 292°
2026-05-07 16:36 48.34477 11.77446 1491 ft 5 kts 303°
2026-05-07 16:37 48.34487 11.77441 1486 ft 2 kts 347°
2026-05-07 16:37 48.34517 11.77439 1484 ft 7 kts 359°
2026-05-07 16:37 48.34581 11.77433 1479 ft 10 kts 355°
2026-05-07 16:37 48.34627 11.77471 1487 ft 9 kts 66°
2026-05-07 16:38 48.34638 11.77577 1491 ft 12 kts 82°
2026-05-07 16:38 48.34649 11.77725 1481 ft 17 kts 83°
2026-05-07 16:38 48.34663 11.77910 1491 ft 18 kts 83°
2026-05-07 16:38 48.34680 11.78118 1491 ft 22 kts 83°
2026-05-07 16:39 48.34698 11.78363 1478 ft 25 kts 83°
2026-05-07 16:39 48.34718 11.78623 1491 ft 26 kts 83°
2026-05-07 16:39 48.34740 11.78897 1486 ft 27 kts 83°
2026-05-07 16:39 48.34762 11.79188 1491 ft 28 kts 83°
2026-05-07 16:40 48.34778 11.79413 1487 ft 18 kts 82°
2026-05-07 16:40 48.34793 11.79519 1488 ft 9 kts 59°
2026-05-07 16:40 48.34855 11.79556 1488 ft 11 kts 358°
2026-05-07 16:40 48.34937 11.79544 1485 ft 13 kts 352°
2026-05-07 16:41 48.35030 11.79527 1479 ft 14 kts 355°
2026-05-07 16:41 48.35136 11.79511 1484 ft 16 kts 354°
2026-05-07 16:41 48.35223 11.79490 1488 ft 11 kts 343°
2026-05-07 16:41 48.35301 11.79477 1481 ft 12 kts 356°
2026-05-07 16:42 48.35385 11.79466 1484 ft 13 kts 354°
2026-05-07 16:42 48.35439 11.79458 1488 ft 3 kts 354°
2026-05-07 16:42 48.35463 11.79454 1484 ft 4 kts 353°
2026-05-07 16:42 48.35494 11.79448 1491 ft 5 kts 353°
2026-05-07 16:43 48.35525 11.79420 1486 ft 6 kts 295°
2026-05-07 16:43 48.35529 11.79355 1484 ft 7 kts 263°
2026-05-07 16:43 48.35526 11.79303 1491 ft 4 kts 263°
2026-05-07 16:43 48.35526 11.79298 1491 ft 0 kts 262°